Flag for United Kingdom Weather past 2 weeks in Edinburgh, Scotland, United Kingdom

Now
50 °F

Cool.


Feels Like: 44 °F
Forecast: 43 / 53 °F
Wind: 16 mph from Northwest

Location: Edinburgh Airport

Current Time: Oct 21, 2014 at 3:27:58 PM

Latest Report: Oct 21, 2014 at 2:50 PM


Visibility: N/A

Pressure: 29.56 "Hg

Humidity: 54%

Dew point: 34 °F

Location of EdinburghLocation

Historic Weather in Edinburgh — Graph

°F

Edinburgh temperature yesterday

Maximum temperature yesterday: 55 °F (at 12:20 PM)
Minimum temperature yesterday: 50 °F (at 12:20 AM)
Average temperature yesterday: 53 °F

Past Weeks' High & Low Weather Summary

 TemperatureHumidityPressure
High64 °F (Oct 17, 12:50 PM)100% (Oct 6, 10:20 PM)29.95 "Hg (Oct 6, 10:20 PM)
Low34 °F (Oct 7, 12:50 AM)51% (Oct 15, 3:20 PM)29.00 "Hg (Oct 21, 5:20 AM)
Average50 °F85%29.58 "Hg
* Reported Oct 6 2:20 PM — Oct 21 2:20 PM, Edinburgh, Weather by CustomWeather, © 2014

Note: Actual official high and low records may vary slightly from our data, if they occured in-between our weather recording intervals... More about our weather records

Advertising

Edinburgh weather history for previous 24 hours

 ConditionsComfort  
Time TempWeatherWind HumidityBarometerVisibility
2:20 PM
Oct 21
50 °FPassing clouds.21 mph54%29.53 "HgN/A
1:50 PM50 °FPassing clouds.20 mph54%29.50 "HgN/A
1:20 PM50 °FPassing clouds.20 mph54%29.45 "HgN/A
12:50 PM50 °FPassing clouds.20 mph58%29.45 "HgN/A
12:20 PM50 °FPassing clouds.14 mph62%29.42 "HgN/A
11:50 AM50 °FPassing clouds.15 mph67%29.39 "HgN/A
11:20 AM50 °FPassing clouds.17 mph62%29.36 "HgN/A
10:50 AM50 °FPassing clouds.18 mph67%29.33 "HgN/A
10:20 AM50 °FPassing clouds.21 mph67%29.30 "HgN/A
9:50 AM48 °FPassing clouds.18 mph71%29.27 "HgN/A
9:20 AM48 °FPassing clouds.17 mph71%29.24 "HgN/A
8:50 AM46 °FPassing clouds.16 mph76%29.24 "HgN/A
8:20 AM46 °FPassing clouds.20 mph76%29.21 "HgN/A
7:50 AM46 °FPassing clouds.17 mph76%29.18 "HgN/A
7:20 AM48 °FPassing clouds.21 mph71%29.15 "HgN/A
6:50 AM48 °FPassing clouds.22 mph76%29.09 "HgN/A
6:20 AM50 °FPassing clouds.25 mph76%29.06 "HgN/A
5:50 AM54 °FOvercast.26 mph82%29.00 "HgN/A
5:20 AM55 °FMostly cloudy.22 mph82%29.00 "HgN/A
4:50 AM55 °FMostly cloudy.18 mph88%29.03 "HgN/A
4:20 AM55 °FLight rain. Partly cloudy.16 mph88%29.06 "HgN/A
3:50 AM55 °FLight rain. Partly cloudy.17 mph88%29.09 "HgN/A
3:20 AM55 °FRain. Passing clouds.18 mph88%29.12 "HgN/A
2:50 AM55 °FClear.22 mph82%29.15 "HgN/A
2:20 AM55 °FLight rain. Clear.20 mph82%29.21 "HgN/A
1:50 AM55 °FRain. Clear.14 mph88%29.27 "HgN/A
1:20 AM55 °FLight rain. Passing clouds.16 mph88%29.30 "HgN/A
12:50 AM55 °FPartly cloudy.21 mph82%29.33 "HgN/A
12:20 AM57 °FMostly cloudy.17 mph77%29.36 "HgN/A
11:50 PM
Oct 20
55 °FMostly cloudy.14 mph82%29.39 "HgN/A
11:20 PM55 °FPartly cloudy.16 mph82%29.42 "HgN/A
10:50 PM55 °FPassing clouds.18 mph82%29.45 "HgN/A
10:20 PM55 °FPassing clouds.18 mph82%29.47 "HgN/A
9:50 PM55 °FPassing clouds.16 mph82%29.50 "HgN/A
9:20 PM54 °FSprinkles. Partly cloudy.17 mph88%29.53 "Hg6 mi
8:50 PM54 °FPassing clouds.14 mph82%29.56 "HgN/A
8:20 PM54 °FPartly cloudy.16 mph82%29.56 "HgN/A
7:50 PM54 °FPassing clouds.16 mph77%29.59 "HgN/A
7:20 PM54 °FPassing clouds.14 mph77%29.62 "HgN/A
6:50 PM54 °FScattered clouds.13 mph77%29.65 "HgN/A
6:20 PM54 °FPartly sunny.10 mph77%29.65 "HgN/A
5:50 PM54 °FPassing clouds.15 mph77%29.65 "HgN/A
5:20 PM54 °FPassing clouds.15 mph77%29.65 "HgN/A
4:50 PM54 °FPassing clouds.16 mph82%29.68 "HgN/A
4:20 PM55 °FScattered clouds.17 mph77%29.68 "HgN/A
3:50 PM55 °FBroken clouds.17 mph77%29.68 "HgN/A
3:20 PM55 °FPartly sunny.17 mph77%29.68 "HgN/A
Weather by CustomWeather, © 2014

See weather overviewHow to use our weather pages